Location: Ecklingerode
(51.5036°N, 10.3122°E)
Time: 07:22:11
(UTC+00:00)

Okean O Rocket - Pass Details

Date: 29 October 2020
Orbit: 623 x 644 km, 98.2° (Epoch: 01 December)

Event Time Altitude Azimuth Distance (km) Brightness Sun altitude
Rises 17:23:01 0° 191° (SSW) 2,907 5.2 -13.9°
Reaches altitude 10° 17:25:26 10° 202° (SSW) 2,002 4.5 -14.3°
Maximum altitude 17:29:16 30° 264° (W) 1,128 3.7 -14.9°
Drops below altitude 10° 17:33:08 10° 327° (NNW) 2,009 4.6 -15.5°
Sets 17:35:34 0° 338° (NNW) 2,920 5.3 -15.9°
